FDB336 OPKC-OMDB

Flight info

Callsign FDB336
Flight time N/A
Altitude 38000
Route MELOM A454 PASOV B540 KUPMA/N0388F240 B540 MIVEK P574 IMPED
Aircraft A20N/M-SDE2E3FGHIRWXY/LB1

Departure

Time 2026-05-06 15:34
Airport Jinnah International Airport (OPKC)

Arrival

Time N/A
Airport Dubai International Airport (OMDB)
Time Latitude Longitude Altitude Speed Heading
2026-05-06 15:19 24.90230 67.16589 101 ft 0 kts 174°
2026-05-06 15:27 24.90234 67.16589 101 ft 3 kts 166°
2026-05-06 15:27 24.90276 67.16571 100 ft 9 kts 160°
2026-05-06 15:27 24.90316 67.16533 99 ft 4 kts 59°
2026-05-06 15:27 24.90316 67.16535 99 ft 0 kts 71°
2026-05-06 15:29 24.90323 67.16555 102 ft 5 kts 69°
2026-05-06 15:29 24.90340 67.16607 98 ft 9 kts 73°
2026-05-06 15:29 24.90368 67.16683 101 ft 12 kts 44°
2026-05-06 15:30 24.90454 67.16697 101 ft 13 kts 13°
2026-05-06 15:30 24.90497 67.16783 101 ft 15 kts 75°
2026-05-06 15:30 24.90528 67.16905 103 ft 18 kts 74°
2026-05-06 15:30 24.90566 67.17053 100 ft 21 kts 75°
2026-05-06 15:31 24.90610 67.17220 102 ft 24 kts 75°
2026-05-06 15:31 24.90665 67.17399 100 ft 23 kts 50°
2026-05-06 15:31 24.90750 67.17466 103 ft 0 kts 31°
2026-05-06 15:32 24.90758 67.17471 103 ft 4 kts 30°
2026-05-06 15:32 24.90813 67.17493 105 ft 12 kts 355°
2026-05-06 15:32 24.90857 67.17411 105 ft 17 kts 257°
2026-05-06 15:33 24.90787 67.17131 107 ft 74 kts 254°
2026-05-06 15:33 24.90588 67.16341 104 ft 139 kts 254°
2026-05-06 15:33 24.90292 67.15143 201 ft 183 kts 254°
2026-05-06 15:33 24.89876 67.13699 481 ft 194 kts 244°
2026-05-06 15:34 24.89129 67.12573 1522 ft 170 kts 227°
2026-05-06 15:34 24.88302 67.11714 2201 ft 167 kts 225°
2026-05-06 15:34 24.87451 67.10848 2965 ft 167 kts 225°
2026-05-06 15:34 24.86581 67.09905 3427 ft 185 kts 226°
2026-05-06 15:35 24.85953 67.09182 3722 ft 200 kts 227°
2026-05-06 15:35 24.84607 67.07584 4275 ft 229 kts 228°
2026-05-06 15:35 24.83874 67.06705 4585 ft 241 kts 228°
2026-05-06 15:35 24.82449 67.04949 5398 ft 251 kts 235°
2026-05-06 15:36 24.81924 67.03804 5815 ft 256 kts 254°
2026-05-06 15:36 24.81669 67.01839 6469 ft 262 kts 267°
2026-05-06 15:36 24.81565 66.99796 6999 ft 277 kts 270°
2026-05-06 15:36 24.81482 66.97622 7612 ft 287 kts 270°
2026-05-06 15:37 24.81388 66.95417 8469 ft 290 kts 270°
2026-05-06 15:37 24.81279 66.93185 9332 ft 294 kts 270°
2026-05-06 15:37 24.81158 66.90925 10130 ft 299 kts 270°
2026-05-06 15:37 24.81031 66.88559 10457 ft 322 kts 270°
2026-05-06 15:38 24.80894 66.86009 10716 ft 344 kts 270°
2026-05-06 15:38 24.80746 66.83348 11364 ft 350 kts 270°
2026-05-06 15:38 24.80595 66.80704 12133 ft 353 kts 270°
2026-05-06 15:38 24.80438 66.77953 12903 ft 357 kts 270°
2026-05-06 15:39 24.80283 66.75211 13697 ft 360 kts 270°
2026-05-06 15:39 24.80127 66.72442 14413 ft 363 kts 270°
2026-05-06 15:39 24.79973 66.69694 15118 ft 366 kts 270°
2026-05-06 15:39 24.79813 66.66854 15856 ft 368 kts 270°
2026-05-06 15:40 24.79654 66.64064 16550 ft 371 kts 270°
2026-05-06 15:40 24.79492 66.61216 17245 ft 374 kts 270°
2026-05-06 15:40 24.79328 66.58349 17929 ft 377 kts 270°
2026-05-06 15:40 24.79162 66.55460 18544 ft 379 kts 270°
2026-05-06 15:41 24.78995 66.52547 19129 ft 382 kts 270°
2026-05-06 15:41 24.78826 66.49633 19641 ft 382 kts 270°
2026-05-06 15:41 24.78655 66.46693 19966 ft 388 kts 270°
2026-05-06 15:41 24.78483 66.43731 20594 ft 388 kts 270°
2026-05-06 15:42 24.78309 66.40746 21169 ft 391 kts 270°
2026-05-06 15:42 24.78134 66.37754 21723 ft 394 kts 270°
2026-05-06 15:42 24.77956 66.34729 22262 ft 397 kts 270°
2026-05-06 15:42 24.77777 66.31693 22801 ft 399 kts 270°
2026-05-06 15:43 24.77596 66.28626 23313 ft 403 kts 271°
2026-05-06 15:43 24.77413 66.25547 23776 ft 404 kts 271°
2026-05-06 15:43 24.77228 66.22453 24266 ft 405 kts 271°
2026-05-06 15:43 24.77045 66.19399 24717 ft 406 kts 271°
2026-05-06 15:44 24.76858 66.16289 25164 ft 408 kts 271°
2026-05-06 15:44 24.76670 66.13167 25608 ft 409 kts 271°
2026-05-06 15:44 24.76481 66.10038 26032 ft 411 kts 271°
2026-05-06 15:44 24.76290 66.06896 26457 ft 412 kts 270°
2026-05-06 15:45 24.76099 66.03744 26865 ft 413 kts 270°
2026-05-06 15:45 24.75906 66.00579 27260 ft 415 kts 270°
2026-05-06 15:45 24.75712 65.97408 27645 ft 417 kts 270°
2026-05-06 15:45 24.75516 65.94223 28028 ft 418 kts 270°
2026-05-06 15:46 24.75318 65.91007 28388 ft 420 kts 270°
2026-05-06 15:46 24.75122 65.87838 28751 ft 422 kts 270°
2026-05-06 15:46 24.74922 65.84611 29099 ft 423 kts 270°
2026-05-06 15:46 24.74720 65.81373 29445 ft 425 kts 270°
2026-05-06 15:47 24.74517 65.78121 29788 ft 427 kts 270°
2026-05-06 15:47 24.74313 65.74860 30091 ft 428 kts 270°
2026-05-06 15:47 24.74107 65.71577 30352 ft 431 kts 270°
2026-05-06 15:47 24.73899 65.68281 30626 ft 433 kts 270°
2026-05-06 15:48 24.73689 65.64962 30918 ft 434 kts 270°
2026-05-06 15:48 24.73479 65.61654 31261 ft 434 kts 270°
2026-05-06 15:48 24.73267 65.58335 31636 ft 434 kts 269°
2026-05-06 15:48 24.73055 65.55030 32001 ft 433 kts 269°
2026-05-06 15:49 24.72842 65.51722 32357 ft 433 kts 269°
2026-05-06 15:49 24.72633 65.48465 32694 ft 432 kts 269°
2026-05-06 15:49 24.72419 65.45167 33032 ft 432 kts 269°
2026-05-06 15:49 24.72205 65.41870 33360 ft 431 kts 269°
2026-05-06 15:50 24.71991 65.38572 33685 ft 431 kts 269°
2026-05-06 15:50 24.71776 65.35283 33970 ft 430 kts 269°
2026-05-06 15:50 24.71561 65.32002 34250 ft 429 kts 269°
2026-05-06 15:50 24.71345 65.28731 34515 ft 429 kts 268°
2026-05-06 15:51 24.71129 65.25460 34777 ft 428 kts 268°
2026-05-06 15:51 24.70915 65.22232 35025 ft 428 kts 268°